Content
SEND FEEDBACK

Daily
Averages
Monthly
Summary
United States of America

WAUBAY, SOUTH DAKOTA


Home > North America > United States > South Dakota
Elevation: 550 meters     Latitude: 45 26N     Longitude: 097 20W

WEATHER
 
SELECT A DAY
Number of Records: 136,452;   Date Range: 8/27/98 - 9/14/14
 
SHARE

PRINT THIS DATA

[ ← Previous Day ]
WEATHER ALMANAC - 31 JANUARY, 2013
[ Next Day → ]
[ °F ]   °C
Weather ElementAverageHighLow
Temperature-24.2 °C-22.2 °C (1:56 pm)-26.7 °C (11:56 pm)
Dewpoint-28.2 °C-26.7 °C (1:56 am)-30.6 °C (11:56 pm)
Humidity70.6 %75 % (3:56 am)65 % (3:56 pm)
Barometer1028.4 hPa1032.8 hPa (8:56 pm)1019.6 hPa (1:56 am)
Wind Speed29.6 km/h44.4 km/h (11:56 am)
Wind Gust59.2 km/h (10:56 am)
Weather ElementAverage
Wind DirectionNNW (327 °)

Weather ElementTotal
Precipitation---
Heating Degree Days42.8 (Base 18.3)
Averaged from 23 records on 31 January, 2013
WEATHER CONDITIONS BREAKOUT
WIND DIRECTION BREAKOUT
WEATHER BY HOUR - 31 JANUARY, 2013
[ °F ]   °C
Local TimeTemperatureDewpointHumidityBarometerVisibilityWind DirectionWind SpeedGust SpeedPrecipitationEventsConditions
1:56 AM-23.3 °C-26.7 °C74 %1019.6 hPaNNW (340°)35.2 km/h
2:56 AM-24.4 °C-27.8 °C74 %1020.3 hPaNNW (330°)27.8 km/h
3:56 AM-25 °C-28.3 °C75 %1021 hPaNNW (330°)29.6 km/h
4:56 AM-25 °C-28.9 °C71 %1022 hPaNNW (330°)38.9 km/h
5:56 AM-25.6 °C-28.9 °C75 %1023.4 hPaNNW (330°)37 km/h
6:56 AM-25.6 °C-29.4 °C71 %1024.7 hPaNNW (330°)33.3 km/h
7:56 AM-25 °C-28.9 °C71 %1025.7 hPaNNW (330°)40.7 km/h51.8 km/h
8:56 AM-25 °C-28.3 °C75 %1027.4 hPaNNW (330°)40.7 km/h50.1 km/h
9:56 AM-24.4 °C-28.3 °C71 %1028.4 hPaNNW (340°)40.7 km/h51.8 km/h
10:56 AM-23.9 °C-27.8 °C71 %1029.1 hPaNNW (340°)42.6 km/h59.2 km/h
11:56 AM-23.3 °C-27.2 °C71 %1029.5 hPaNNW (340°)44.4 km/h
12:56 PM-22.8 °C-27.2 °C68 %1030.1 hPaNNW (340°)38.9 km/h
1:56 PM-22.2 °C-26.7 °C68 %1030.5 hPaNNW (330°)31.5 km/h44.4 km/h
2:56 PM-22.2 °C-26.7 °C68 %1030.8 hPaNW (320°)25.9 km/h
3:56 PM-22.2 °C-27.2 °C65 %1031.8 hPaNNW (330°)33.3 km/h
4:56 PM-22.8 °C-27.2 °C68 %1031.8 hPaNNW (330°)25.9 km/h
5:56 PM-23.9 °C-28.3 °C68 %1032.2 hPaNW (320°)16.7 km/h
6:56 PM-24.4 °C-28.3 °C71 %1032.5 hPaNW (320°)16.7 km/h
7:56 PM-25 °C-28.9 °C71 %1032.5 hPaNW (310°)18.5 km/h
8:56 PM-25 °C-28.9 °C71 %1032.8 hPaNW (310°)20.4 km/h
9:56 PM-25 °C-29.4 °C68 %1032.8 hPaNW (310°)14.8 km/h
10:56 PM-25 °C-29.4 °C68 %1032.2 hPaNW (320°)16.7 km/h
11:56 PM-26.7 °C-30.6 °C71 %1032.2 hPaNW (310°)9.3 km/h
Hourly data recorded from K8D3, located 0 kilometers away from Waubay, South Dakota







STORIES FROM OUR PARTNERS